Weather History for Kahului, HI

Change the Weather History Date:

Monday, February 4, 2013

  Actual Average Record
Temperature  
Mean Temperature 74 °F 72 °F  
Max Temperature 80 °F 81 °F 87 °F (1950)
Min Temperature 67 °F 63 °F 54 °F (1993)
Degree Days  
Heating Degree Days 0 0  
Month to date heating degree days 0 0  
Since 1 July heating degree days 0 0  
Cooling Degree Days 9 7  
Month to date cooling degree days 27 28  
Year to date cooling degree days 258 245  
Growing Degree Days 22 (Base 50)    
Moisture  
Dew Point 62 °F    
Average Humidity 71    
Maximum Humidity 87    
Minimum Humidity 54    
Precipitation  
Precipitation 0.02 in 0.07 in 2.02 in (1979)
Month to date precipitation 0.02 0.31  
Year to date precipitation 2.01 3.18  
Snow  
Snow 0.00 in - - ()
Month to date snowfall 0.0  
Since 1 July snowfall 0.0  
Snow Depth 0.00 in    
Sea Level Pressure  
Sea Level Pressure 30.12 in    
Wind  
Wind Speed 18 mph (NE)    
Max Wind Speed 32 mph    
Max Gust Speed 39 mph    
Visibility 10 miles    
Events Rain    
T = Trace of Precipitation, MM = Missing Value Source: NWS Daily Summary

Daily Weather History Graph

Daily Weather History Graph

Search for Another Location

Airport:

Trip Planner

Search our weather history database for the weather conditions in past years. The results will help you decide how hot, cold, wet, or windy it might be!

Date:

Astronomy

Feb. 04, 2013 Rise Set
Actual Time 7:01 AM HST 6:18 PM HST
Civil Twilight 6:38 AM HST 6:41 PM HST
Nautical Twilight 6:11 AM HST 7:07 PM HST
Astronomical Twilight 5:45 AM HST 7:34 PM HST
Moon 1:39 AM HST (2/4) 1:02 PM HST (2/4)
Length of Visible Light 12h 03m
Length of Day
11h 17m
Waning Crescent, 35% of the Moon is Illuminated
Feb 4
Waning Crescent
Feb 9
New
Feb 17
First Quarter
Feb 25
Full
Mar 4
Last Quarter

Hourly Weather History & Observations

Time (HST) Temp. Dew Point Humidity Pressure Visibility Wind Dir Wind Speed Gust Speed Precip Events Conditions
12:54 AM 71.1 °F 55.0 °F 57% 30.15 in 10.0 mi NE 19.6 mph 27.6 mph N/A   Overcast
1:54 AM 70.0 °F 55.0 °F 59% 30.13 in 10.0 mi NE 17.3 mph - N/A   Clear
2:54 AM 71.1 °F 57.0 °F 61% 30.12 in 10.0 mi NE 16.1 mph 23.0 mph N/A   Mostly Cloudy
3:54 AM 70.0 °F 59.0 °F 68% 30.12 in 10.0 mi NE 16.1 mph - N/A   Mostly Cloudy
4:54 AM 70.0 °F 60.1 °F 71% 30.12 in 5.0 mi NE 13.8 mph 19.6 mph N/A   Haze
5:54 AM 69.1 °F 62.1 °F 78% 30.13 in 10.0 mi NE 18.4 mph 26.5 mph 0.00 in   Partly Cloudy
6:54 AM 69.1 °F 63.0 °F 81% 30.15 in 10.0 mi NE 13.8 mph - 0.00 in Rain Light Rain
7:54 AM 70.0 °F 64.9 °F 84% 30.15 in 10.0 mi NE 25.3 mph 28.8 mph 0.00 in Rain Light Rain
8:54 AM 72.0 °F 64.0 °F 76% 30.16 in 10.0 mi NNE 15.0 mph 21.9 mph 0.01 in   Scattered Clouds
9:54 AM 73.0 °F 63.0 °F 71% 30.16 in 10.0 mi NE 20.7 mph 31.1 mph 0.00 in   Partly Cloudy
10:54 AM 75.9 °F 62.1 °F 62% 30.15 in 10.0 mi NE 18.4 mph 28.8 mph N/A   Scattered Clouds
11:54 AM 78.1 °F 61.0 °F 56% 30.13 in 10.0 mi NE 23.0 mph 35.7 mph N/A   Scattered Clouds
12:54 PM 79.0 °F 61.0 °F 54% 30.10 in 10.0 mi NE 28.8 mph 36.8 mph N/A   Scattered Clouds
1:54 PM 75.9 °F 62.1 °F 62% 30.09 in 10.0 mi NE 28.8 mph 34.5 mph 0.00 in   Scattered Clouds
2:54 PM 78.1 °F 63.0 °F 60% 30.07 in 10.0 mi NE 25.3 mph 31.1 mph N/A   Scattered Clouds
3:54 PM 75.9 °F 64.0 °F 67% 30.07 in 10.0 mi NE 28.8 mph 34.5 mph N/A   Scattered Clouds
4:54 PM 73.9 °F 63.0 °F 68% 30.09 in 10.0 mi ENE 17.3 mph 28.8 mph 0.00 in   Scattered Clouds
5:54 PM 66.9 °F 62.1 °F 84% 30.10 in 10.0 mi ENE 13.8 mph 21.9 mph 0.00 in   Scattered Clouds
6:54 PM 68.0 °F 64.0 °F 87% 30.10 in 10.0 mi NE 8.1 mph 18.4 mph 0.00 in Rain Light Rain
7:54 PM 69.1 °F 63.0 °F 81% 30.11 in 10.0 mi NE 15.0 mph - 0.00 in Rain Light Rain
8:54 PM - - N/A% 30.13 in 10.0 mi NE 9.2 mph - 0.00 in Rain Light Rain
9:54 PM 71.6 °F 64.4 °F 78% 30.12 in 10.0 mi ENE 15.0 mph 20.7 mph 0.00 in Rain Light Rain
10:54 PM 69.8 °F 64.4 °F 83% 30.12 in 10.0 mi NE 13.8 mph 20.7 mph 0.01 in   Overcast
11:54 PM 69.8 °F 64.4 °F 83% 30.10 in 10.0 mi NE 12.7 mph 25.3 mph N/A   Scattered Clouds